Tracking 19574 objects as of 16-Feb-2019
HD Live streaming from Space Station
objects crossing your sky now

INSAT 2R (ARABSAT 1C)

Track INSAT 2R (ARABSAT 1C) now!
INSAT 2R (ARABSAT 1C) is classified as:


NORAD ID: 21894
Int'l Code: 1992-010B
Perigee: 36,120.4 km
Apogee: 36,370.3 km
Inclination: 12.3 °
Period: 1,459.2 minutes
Semi major axis: 42616 km
RCS: 2.2387 m2 (large)
Launch date: February 26, 1992
Source: India (IND)
Launch site: FRENCH GUIANA (FRGUI)
aabbcc
Your satellite tracking list
Your tracking list is empty




NASA's NSSDC Master Catalog

Two Line Element Set (TLE):
1 21894U 92010B   19046.93052039 -.00000015 +00000-0 +00000-0 0  9994
2 21894 012.2686 030.9865 0029327 225.7878 310.7912 00.98682140097810
Source of the keplerian elements: AFSPC